Regional Weather Roundup
Issued by NWS State College, PA

Home | Current Version | Previous Version | Text Only | Print | Product List | Glossary On
Versions: 1 2 3 4 5 6 7 8 9 10 11 12 13 14 15 16 17 18 19 20 21 22 23 24 25 26 27 28 29 30 31 32 33 34 35 36 37 38 39 40 41 42 43 44 45 46 47 48 49 50
000
ASUS41 KCTP 311603
RWRCTP

REGIONAL WEATHER ROUNDUP
NATIONAL WEATHER SERVICE STATE COLLEGE PA
1100 AM EST SAT JAN 31 2015

Note: "fair" indicates few or no clouds below 12,000 feet with no
significant weather and/or obstructions to visibility.

* = STATION THAT DOES NOT REPORT PRECIPITATION /E.G. RAIN...SNOW...ETC/
    THUNDER OR FOG.

PAZ002>004-007>009-013>016-020>023-029>032-311700-
WESTERN PENNSYLVANIA

CITY           SKY/WX    TMP DP  RH WIND       PRES   REMARKS
ERIE           PTSUNNY   19   8  62 S7        30.32S WCI  10
MEADVILLE      MOSUNNY   14   6  70 SW8       30.27F WCI   3
FRANKLIN*      PTSUNNY   16   7  67 SW8       30.29F WCI   5
NEW CASTLE     FAIR      18   8  64 S7        30.35R WCI   9
BEAVER COUNTY  MOSUNNY   18   9  68 SW7       30.33R WCI   8
BUTLER*        PTSUNNY   18   7  62 SW8       30.35R WCI   7
PITTSBURGH INT MOSUNNY   18   9  68 SW7       30.34R WCI   9
PITTSBURGH     SUNNY     17   6  62 SW9       30.33S WCI   6
INDIANA*       NOT AVBL
LATROBE        MOSUNNY   16   9  73 SW6       30.37S WCI   7
WASHINGTON CO* SUNNY     19  10  68 SW10      30.37R WCI   8
$$

PAZ004>006-010>012-017>019-024>028-033>037-041-042-045-046-049>053-311700-
CENTRAL PENNSYLVANIA

CITY           SKY/WX    TMP DP  RH WIND       PRES   REMARKS
BRADFORD       CLOUDY    12   3  67 W10       30.20R WCI  -1
DUBOIS         CLOUDY    12   6  77 W8        30.24S WCI   0
CLEARFIELD     CLOUDY    15   4  61 NW9       30.28S WCI   3
JOHNSTOWN      LGT SNOW  11   4  73 W13       30.21S WCI  -4
ALTOONA        MOSUNNY   25   4  40 NW14      30.28R WCI  13
STATE COLLEGE  MOSUNNY   16   5  62 W17       30.29R WCI   0
WILLIAMSPORT   PTSUNNY   20   4  50 NW17      30.31R WCI   5
SELINSGROVE    MOSUNNY   20   4  50 NW13      30.32S WCI   7
FT INDIANTOWN  SUNNY     19   2  47 NW8       30.29S WCI   9
CAPITAL CITY   MOSUNNY   20   4  50 NW15G26   30.31F WCI   6
HARRISBURG     MOSUNNY   19   5  54 NW18      30.31S WCI   4
YORK           SUNNY     19   4  51 NW12      30.31S WCI   7
$$

PAZ038>040-043-044-047-048-054-055-060>062-067>071-311700-
EASTERN PENNSYLVANIA

CITY           SKY/WX    TMP DP  RH WIND       PRES   REMARKS
SCRANTON       MOSUNNY   13   0  56 NW8G22    30.23S WCI   2
MOUNT POCONO   SUNNY      9  -4  55 NW25G39   30.04R WCI -12
ALLENTOWN      SUNNY     17  -2  43 W10       30.24R WCI   5
QUAKERTOWN*    SUNNY     16   0  48 NW14G22   30.23S WCI   1
READING        SUNNY     19   3  49 NW21G29   30.27S WCI   3
LANCASTER      SUNNY     18   2  49 NW15G25   30.29S WCI   4
COATESVILLE    SUNNY     18   5  57 NW13G22   30.26S WCI   4
POTTSTOWN      SUNNY     18   1  47 NW15G24   30.27R WCI   4
BLUE BELL      SUNNY     21   1  42 W10G17    30.24S WCI  10
DOYLESTOWN     SUNNY     17   0  47 NW14G24   30.22R WCI   3
WILLOW GROVE   NOT AVBL
NORTH PHILA    SUNNY     21  -1  38 NW17G23   30.27R WCI   7
PHILADELPHIA   SUNNY     21  -2  36 NW20G29   30.28S WCI   6
$$


USA.gov is the U.S. government's official web portal to all federal, state and local government web resources and services.